Time,TemperatureF,DewpointF,PressureIn,WindDirection,WindDirectionDegrees,WindSpeedMPH,WindSpeedGustMPH,Humidity,HourlyPrecipIn,Conditions,Clouds,dailyrainin,SoftwareType,DateUTC
2018-02-19 00:01:00,56.6,54.0,30.17,SSE,161,1.0,3.0,91,0.07,,,0.00,Wunderground v.1.15,2018-02-19 05:01:00,
2018-02-19 00:06:00,56.6,54.0,30.16,SE,142,7.0,7.0,91,0.04,,,0.00,Wunderground v.1.15,2018-02-19 05:06:00,
2018-02-19 00:11:00,56.5,53.9,30.16,SW,232,1.0,4.0,91,0.00,,,0.00,Wunderground v.1.15,2018-02-19 05:11:00,
2018-02-19 00:17:00,56.5,53.9,30.16,SE,145,10.0,10.0,91,0.00,,,0.00,Wunderground v.1.15,2018-02-19 05:17:00,
2018-02-19 00:22:00,56.4,53.8,30.17,NW,319,1.0,5.0,91,0.00,,,0.00,Wunderground v.1.15,2018-02-19 05:22:00,
2018-02-19 00:27:00,56.5,53.9,30.16,WNW,303,2.0,7.0,91,0.00,,,0.00,Wunderground v.1.15,2018-02-19 05:27:00,
2018-02-19 00:32:00,56.6,54.0,30.17,SE,130,3.0,6.0,91,0.00,,,0.00,Wunderground v.1.15,2018-02-19 05:32:00,
2018-02-19 00:38:00,56.7,53.8,30.15,NNE,26,1.0,6.0,90,0.00,,,0.00,Wunderground v.1.15,2018-02-19 05:38:00,
2018-02-19 00:44:00,56.7,53.8,30.16,East,82,4.0,5.0,90,0.00,,,0.00,Wunderground v.1.15,2018-02-19 05:44:00,
2018-02-19 00:50:00,56.9,54.0,30.16,SSE,164,4.0,5.0,90,0.00,,,0.00,Wunderground v.1.15,2018-02-19 05:50:00,
2018-02-19 00:55:00,57.1,53.9,30.15,South,175,3.0,6.0,89,0.00,,,0.00,Wunderground v.1.15,2018-02-19 05:55:00,
2018-02-19 01:00:00,57.3,54.1,30.16,WNW,299,5.0,5.0,89,0.00,,,0.00,Wunderground v.1.15,2018-02-19 06:00:00,
2018-02-19 01:05:00,57.5,54.0,30.15,SSW,202,7.0,18.0,88,0.00,,,0.00,Wunderground v.1.15,2018-02-19 06:05:00,
2018-02-19 01:11:00,57.6,54.1,30.16,SSW,205,2.0,6.0,88,0.00,,,0.00,Wunderground v.1.15,2018-02-19 06:11:00,
2018-02-19 01:16:00,57.6,54.1,30.16,ESE,115,1.0,7.0,88,0.00,,,0.00,Wunderground v.1.15,2018-02-19 06:16:00,
2018-02-19 01:27:00,57.8,54.0,30.16,NNW,329,2.0,8.0,87,0.00,,,0.00,Wunderground v.1.15,2018-02-19 06:27:00,
2018-02-19 01:32:00,57.9,54.1,30.17,NW,315,2.0,6.0,87,0.00,,,0.00,Wunderground v.1.15,2018-02-19 06:32:00,
2018-02-19 01:38:00,58.0,53.8,30.17,ENE,66,0.0,6.0,86,0.00,,,0.00,Wunderground v.1.15,2018-02-19 06:38:00,
2018-02-19 01:43:00,58.0,53.8,30.17,East,96,3.0,4.0,86,0.00,,,0.00,Wunderground v.1.15,2018-02-19 06:43:00,
2018-02-19 01:48:00,58.1,53.9,30.17,West,262,4.0,5.0,86,0.00,,,0.00,Wunderground v.1.15,2018-02-19 06:48:00,
2018-02-19 01:53:00,58.1,53.9,30.17,WSW,249,2.0,5.0,86,0.00,,,0.00,Wunderground v.1.15,2018-02-19 06:53:00,
2018-02-19 01:58:00,58.2,54.0,30.18,North,11,3.0,7.0,86,0.00,,,0.00,Wunderground v.1.15,2018-02-19 06:58:00,
2018-02-19 02:03:00,58.3,54.1,30.18,NNW,330,1.0,6.0,86,0.00,,,0.00,Wunderground v.1.15,2018-02-19 07:03:00,
2018-02-19 02:08:00,58.3,54.1,30.18,ENE,59,0.0,6.0,86,0.00,,,0.00,Wunderground v.1.15,2018-02-19 07:08:00,
2018-02-19 02:13:00,58.3,54.1,30.18,North,5,4.0,5.0,86,0.00,,,0.00,Wunderground v.1.15,2018-02-19 07:13:00,
2018-02-19 02:18:00,58.3,54.1,30.18,NNW,336,1.0,6.0,86,0.00,,,0.00,Wunderground v.1.15,2018-02-19 07:18:00,
2018-02-19 02:23:00,58.3,54.1,30.19,WNW,292,1.0,4.0,86,0.00,,,0.00,Wunderground v.1.15,2018-02-19 07:23:00,
2018-02-19 02:28:00,58.3,54.1,30.19,West,263,2.0,7.0,86,0.00,,,0.00,Wunderground v.1.15,2018-02-19 07:28:00,
2018-02-19 02:34:00,58.4,54.2,30.18,East,94,1.0,4.0,86,0.00,,,0.00,Wunderground v.1.15,2018-02-19 07:34:00,
2018-02-19 02:39:00,58.4,54.2,30.18,South,178,1.0,7.0,86,0.00,,,0.00,Wunderground v.1.15,2018-02-19 07:39:00,
2018-02-19 02:44:00,58.4,54.2,30.19,SSW,211,4.0,4.0,86,0.00,,,0.00,Wunderground v.1.15,2018-02-19 07:44:00,
2018-02-19 02:49:00,58.4,54.2,30.19,NW,323,2.0,6.0,86,0.00,,,0.00,Wunderground v.1.15,2018-02-19 07:49:00,
2018-02-19 02:54:00,58.5,54.3,30.18,North,360,0.0,3.0,86,0.00,,,0.00,Wunderground v.1.15,2018-02-19 07:54:00,
2018-02-19 02:59:00,58.6,54.4,30.19,West,263,3.0,7.0,86,0.00,,,0.00,Wunderground v.1.15,2018-02-19 07:59:00,
2018-02-19 03:04:00,58.7,54.5,30.18,ENE,75,2.0,4.0,86,0.00,,,0.00,Wunderground v.1.15,2018-02-19 08:04:00,
2018-02-19 03:09:00,58.9,54.4,30.18,North,360,4.0,11.0,85,0.00,,,0.00,Wunderground v.1.15,2018-02-19 08:09:00,
2018-02-19 03:14:00,59.0,54.8,30.18,WNW,286,5.0,9.0,86,0.00,,,0.00,Wunderground v.1.15,2018-02-19 08:14:00,
2018-02-19 03:25:00,59.0,54.5,30.18,NNE,30,4.0,5.0,85,0.00,,,0.00,Wunderground v.1.15,2018-02-19 08:25:00,
2018-02-19 03:30:00,59.0,54.5,30.18,NW,321,7.0,7.0,85,0.00,,,0.00,Wunderground v.1.15,2018-02-19 08:30:00,
2018-02-19 03:35:00,59.0,54.5,30.18,SSE,151,5.0,10.0,85,0.00,,,0.00,Wunderground v.1.15,2018-02-19 08:35:00,
2018-02-19 03:40:00,59.1,54.6,30.18,ESE,123,7.0,7.0,85,0.00,,,0.00,Wunderground v.1.15,2018-02-19 08:40:00,
2018-02-19 03:45:00,59.2,54.7,30.18,SW,219,0.0,9.0,85,0.00,,,0.00,Wunderground v.1.15,2018-02-19 08:45:00,
2018-02-19 03:50:00,59.2,54.7,30.18,NNW,340,1.0,2.0,85,0.00,,,0.00,Wunderground v.1.15,2018-02-19 08:50:00,
2018-02-19 03:55:00,59.1,54.6,30.18,West,281,1.0,4.0,85,0.00,,,0.00,Wunderground v.1.15,2018-02-19 08:55:00,
2018-02-19 04:01:00,59.0,54.5,30.18,East,90,1.0,4.0,85,0.00,,,0.00,Wunderground v.1.15,2018-02-19 09:01:00,
2018-02-19 04:06:00,59.0,54.5,30.18,WNW,298,0.0,4.0,85,0.00,,,0.00,Wunderground v.1.15,2018-02-19 09:06:00,
2018-02-19 04:11:00,59.0,54.8,30.18,North,360,2.0,2.0,86,0.00,,,0.00,Wunderground v.1.15,2018-02-19 09:11:00,
2018-02-19 04:16:00,59.1,54.6,30.18,NW,312,0.0,4.0,85,0.00,,,0.00,Wunderground v.1.15,2018-02-19 09:16:00,
2018-02-19 04:22:00,59.1,54.9,30.19,SW,230,5.0,5.0,86,0.00,,,0.00,Wunderground v.1.15,2018-02-19 09:22:00,
2018-02-19 04:27:00,59.3,55.1,30.19,WNW,298,0.0,5.0,86,0.00,,,0.00,Wunderground v.1.15,2018-02-19 09:27:00,
2018-02-19 04:32:00,59.2,55.0,30.18,WNW,302,0.0,2.0,86,0.00,,,0.00,Wunderground v.1.15,2018-02-19 09:32:00,
2018-02-19 04:37:00,59.2,55.0,30.19,WNW,299,3.0,5.0,86,0.00,,,0.00,Wunderground v.1.15,2018-02-19 09:37:00,
2018-02-19 04:42:00,59.6,55.4,30.19,NNE,21,0.0,1.0,86,0.00,,,0.00,Wunderground v.1.15,2018-02-19 09:42:00,
2018-02-19 04:47:00,59.7,55.2,30.19,NW,320,1.0,4.0,85,0.00,,,0.00,Wunderground v.1.15,2018-02-19 09:47:00,
2018-02-19 04:52:00,60.0,55.5,30.19,WNW,303,0.0,2.0,85,0.00,,,0.00,Wunderground v.1.15,2018-02-19 09:52:00,
2018-02-19 04:57:00,60.3,55.8,30.19,WNW,303,0.0,2.0,85,0.00,,,0.00,Wunderground v.1.15,2018-02-19 09:57:00,
2018-02-19 05:02:00,60.3,55.4,30.19,NW,304,0.0,0.0,84,0.00,,,0.00,Wunderground v.1.15,2018-02-19 10:02:00,
2018-02-19 05:07:00,60.3,55.4,30.20,WNW,303,0.0,0.0,84,0.00,,,0.00,Wunderground v.1.15,2018-02-19 10:07:00,
2018-02-19 05:12:00,60.2,55.3,30.20,WNW,303,0.0,0.0,84,0.00,,,0.00,Wunderground v.1.15,2018-02-19 10:12:00,
2018-02-19 05:17:00,60.1,55.6,30.20,North,9,0.0,3.0,85,0.00,,,0.00,Wunderground v.1.15,2018-02-19 10:17:00,
2018-02-19 05:22:00,60.0,55.5,30.20,North,355,1.0,3.0,85,0.00,,,0.00,Wunderground v.1.15,2018-02-19 10:22:00,
2018-02-19 05:27:00,59.8,55.3,30.20,WNW,284,0.0,3.0,85,0.00,,,0.00,Wunderground v.1.15,2018-02-19 10:27:00,
2018-02-19 05:32:00,59.9,55.4,30.21,NW,313,0.0,1.0,85,0.00,,,0.00,Wunderground v.1.15,2018-02-19 10:32:00,
2018-02-19 05:37:00,59.9,55.4,30.21,NNW,343,6.0,6.0,85,0.00,,,0.00,Wunderground v.1.15,2018-02-19 10:37:00,
2018-02-19 05:42:00,60.1,55.6,30.21,NW,311,0.0,2.0,85,0.00,,,0.00,Wunderground v.1.15,2018-02-19 10:42:00,
2018-02-19 05:47:00,60.2,55.7,30.21,West,271,0.0,3.0,85,0.00,,,0.00,Wunderground v.1.15,2018-02-19 10:47:00,
2018-02-19 05:53:00,60.2,55.7,30.21,West,271,0.0,1.0,85,0.00,,,0.00,Wunderground v.1.15,2018-02-19 10:53:00,
2018-02-19 05:58:00,60.2,56.0,30.21,West,271,0.0,2.0,86,0.00,,,0.00,Wunderground v.1.15,2018-02-19 10:58:00,
2018-02-19 06:03:00,60.1,55.9,30.21,West,271,0.0,0.0,86,0.00,,,0.00,Wunderground v.1.15,2018-02-19 11:03:00,
2018-02-19 06:08:00,60.1,55.9,30.21,West,261,0.0,1.0,86,0.00,,,0.00,Wunderground v.1.15,2018-02-19 11:08:00,
2018-02-19 06:13:00,60.0,55.8,30.21,WNW,288,1.0,2.0,86,0.00,,,0.00,Wunderground v.1.15,2018-02-19 11:13:00,
2018-02-19 06:18:00,60.1,55.9,30.21,WSW,255,0.0,3.0,86,0.00,,,0.00,Wunderground v.1.15,2018-02-19 11:18:00,
2018-02-19 06:23:00,60.1,55.9,30.21,NNW,338,1.0,3.0,86,0.00,,,0.00,Wunderground v.1.15,2018-02-19 11:23:00,
2018-02-19 06:28:00,60.2,56.0,30.21,SSW,211,3.0,7.0,86,0.00,,,0.00,Wunderground v.1.15,2018-02-19 11:28:00,
2018-02-19 06:29:00,60.2,56.0,30.21,SSW,206,3.0,7.0,86,0.00,,,0.00,Wunderground v.1.15,2018-02-19 11:29:00,
2018-02-19 06:34:00,60.3,56.1,30.21,North,5,2.0,8.0,86,0.00,,,0.00,Wunderground v.1.15,2018-02-19 11:34:00,
2018-02-19 06:39:00,60.4,56.2,30.22,WNW,299,0.0,8.0,86,0.00,,,0.00,Wunderground v.1.15,2018-02-19 11:39:00,
2018-02-19 06:44:00,60.4,56.2,30.22,SSE,163,0.0,2.0,86,0.00,,,0.00,Wunderground v.1.15,2018-02-19 11:44:00,
2018-02-19 06:49:00,60.3,55.8,30.21,SSE,163,0.0,2.0,85,0.00,,,0.00,Wunderground v.1.15,2018-02-19 11:49:00,
2018-02-19 06:54:00,60.3,55.8,30.21,NNE,25,3.0,3.0,85,0.00,,,0.00,Wunderground v.1.15,2018-02-19 11:54:00,
2018-02-19 06:59:00,60.3,55.8,30.22,WNW,298,0.0,4.0,85,0.00,,,0.00,Wunderground v.1.15,2018-02-19 11:59:00,
2018-02-19 07:04:00,60.3,56.1,30.21,NW,325,0.0,3.0,86,0.00,,,0.00,Wunderground v.1.15,2018-02-19 12:04:00,
2018-02-19 07:09:00,60.3,56.1,30.21,WSW,254,1.0,5.0,86,0.00,,,0.00,Wunderground v.1.15,2018-02-19 12:09:00,
2018-02-19 07:15:00,60.4,56.2,30.22,South,173,0.0,4.0,86,0.00,,,0.00,Wunderground v.1.15,2018-02-19 12:15:00,
2018-02-19 07:20:00,60.4,56.2,30.22,WNW,302,0.0,4.0,86,0.00,,,0.00,Wunderground v.1.15,2018-02-19 12:20:00,
2018-02-19 07:25:00,60.3,56.1,30.22,ENE,60,1.0,4.0,86,0.00,,,0.00,Wunderground v.1.15,2018-02-19 12:25:00,
2018-02-19 07:30:00,60.3,56.1,30.22,WNW,299,0.0,0.0,86,0.00,,,0.00,Wunderground v.1.15,2018-02-19 12:30:00,
2018-02-19 07:35:00,60.2,56.0,30.22,WNW,298,0.0,2.0,86,0.00,,,0.00,Wunderground v.1.15,2018-02-19 12:35:00,
2018-02-19 07:40:00,60.2,56.3,30.22,NW,319,0.0,0.0,87,0.00,,,0.00,Wunderground v.1.15,2018-02-19 12:40:00,
2018-02-19 07:45:00,60.1,56.2,30.22,NW,319,0.0,1.0,87,0.00,,,0.00,Wunderground v.1.15,2018-02-19 12:45:00,
2018-02-19 07:50:00,60.1,56.2,30.22,NW,319,0.0,0.0,87,0.00,,,0.00,Wunderground v.1.15,2018-02-19 12:50:00,